TimeEDT,TemperatureF,Dew PointF,Humidity,Sea Level PressureIn,VisibilityMPH,Wind Direction,Wind SpeedMPH,Gust SpeedMPH,PrecipitationIn,Events,Conditions,WindDirDegrees,DateUTC
12:51 AM,57.0,50.0,77,29.97,10.0,West,12.7,-,0.00,,Mostly Cloudy,280,2011-10-25 04:51:00
1:51 AM,55.0,48.0,77,29.98,10.0,West,9.2,-,N/A,,Partly Cloudy,280,2011-10-25 05:51:00
2:51 AM,54.0,46.0,75,29.99,10.0,West,6.9,-,N/A,,Clear,280,2011-10-25 06:51:00
3:51 AM,53.1,45.0,74,29.99,10.0,WNW,10.4,-,N/A,,Clear,290,2011-10-25 07:51:00
4:51 AM,52.0,44.1,74,30.00,10.0,West,6.9,-,N/A,,Clear,270,2011-10-25 08:51:00
5:51 AM,51.1,44.1,77,30.01,10.0,West,9.2,-,N/A,,Clear,260,2011-10-25 09:51:00
6:51 AM,51.1,43.0,74,30.03,10.0,West,8.1,-,N/A,,Clear,260,2011-10-25 10:51:00
7:51 AM,52.0,43.0,71,30.05,10.0,WSW,8.1,-,N/A,,Clear,250,2011-10-25 11:51:00
8:51 AM,53.1,43.0,69,30.07,10.0,West,10.4,-,N/A,,Clear,280,2011-10-25 12:51:00
9:51 AM,57.0,39.9,53,30.06,10.0,WNW,15.0,19.6,N/A,,Partly Cloudy,300,2011-10-25 13:51:00
10:51 AM,59.0,37.0,44,30.06,10.0,WNW,11.5,23.0,N/A,,Partly Cloudy,290,2011-10-25 14:51:00
11:51 AM,61.0,35.1,38,30.04,10.0,West,12.7,23.0,N/A,,Partly Cloudy,270,2011-10-25 15:51:00
12:32 PM,62.6,32.0,32,30.03,10.0,WNW,18.4,25.3,N/A,,Clear,300,2011-10-25 16:32:00
12:51 PM,64.0,30.9,29,30.02,10.0,WNW,16.1,25.3,N/A,,Clear,300,2011-10-25 16:51:00
1:51 PM,64.9,28.9,26,30.01,10.0,WNW,21.9,29.9,N/A,,Clear,300,2011-10-25 17:51:00
2:51 PM,64.9,28.9,26,30.01,10.0,NNW,16.1,-,N/A,,Clear,330,2011-10-25 18:51:00
3:51 PM,64.9,25.0,22,30.00,10.0,NW,20.7,28.8,N/A,,Scattered Clouds,310,2011-10-25 19:51:00
4:51 PM,64.9,28.0,25,30.00,10.0,WNW,15.0,-,N/A,,Scattered Clouds,290,2011-10-25 20:51:00
5:51 PM,63.0,28.9,28,30.02,10.0,West,11.5,21.9,N/A,,Partly Cloudy,280,2011-10-25 21:51:00
6:51 PM,62.1,30.9,31,30.04,10.0,WNW,8.1,19.6,N/A,,Partly Cloudy,290,2011-10-25 22:51:00
7:51 PM,61.0,30.9,32,30.04,10.0,WSW,6.9,-,N/A,,Partly Cloudy,240,2011-10-25 23:51:00
8:51 PM,59.0,33.1,38,30.04,10.0,WSW,8.1,-,N/A,,Partly Cloudy,250,2011-10-26 00:51:00
9:51 PM,55.9,34.0,44,30.03,10.0,SW,5.8,-,N/A,,Clear,230,2011-10-26 01:51:00
10:51 PM,52.0,37.9,59,30.04,10.0,SSW,3.5,-,N/A,,Scattered Clouds,210,2011-10-26 02:51:00
11:51 PM,53.1,37.9,57,30.05,10.0,Calm,Calm,-,N/A,,Mostly Cloudy,0,2011-10-26 03:51:00